Starlink 5739

operational
NORAD ID: 55571 Int'l Des: 2023-020 Owner: SPXS Country: US Constellation: starlink
LEOCIRCULAR

关于 Starlink 5739

正在加载描述...

实时位置

正在加载3D地球...

即将过境

高度历史

Altitude vs Time

uPlot chart will show altitude changes over time

两行轨道根数

1 55571U 23020C 26035.70388774 -.00000690 00000-0 -36053-4 0 9998
2 55571 43.0021 184.1973 0001080 248.3036 111.7691 15.02535880163950
Epoch: Feb 4, 2026 • Age: 12 hours

当前状态

高度 561.3 km
速度 7.59 km/s
星下点 36.15°N, 106.09°E
发射日期 Feb 12, 2023
运行时间 2.9 years
类型 internet

技术详情

分类 Payload
质量 305.00 kg
干质量 290.00 kg
总质量 305.00 kg
长度 0.20 m
直径 2.80 m
跨度 9.00 m
形状 Box + pan
制造商 SPXS
平台类型 Starlink
阶段状态 In Orbit
所有者/国家 SPXS/US

大型星座

Loading constellations...